ニート彗星

P/2003 S1 ( NEAT )

English version
Home page
Updated on February 19, 2005

---------------------------------------------------------------------

・ プロフィール

発見日 2003年9月23日
発見光度 18.8等
発見者 Near-Earth-Asteroid Tracking Team (Jet Propulsion Laboratory)

・ 軌道要素

Epoch 2004 Mar. 16.0 TT = JDT 2453080.5
T 2004 Mar. 27.63634 TT                                 MPC
q   2.5956319            (2000.0)            P               Q
n   0.10130925     Peri.  175.82232     +0.54592798     -0.83291372
a   4.5572549      Node   241.06612     +0.76566326     +0.53990431
e   0.4304396      Incl.    5.94528     +0.34017996     +0.12148278
P   9.73
>From 333 observations 2003 Sept. 4-2005 Feb. 12, mean residual 0".67.

・ 星図

・ 光度変化

        m1 = 7.7 + 5 logΔ + 20.0 log r(t + 55)

---------------------------------------------------------------------

軌道要素はM.P.E.C. 2005-C62に掲載されたものです。
星図は StellaNavigator Ver.2.0 for Windows (アストロアーツ 編著 / アスキー出版局刊) で作成したものです。
光度グラフはComet for Windowsで作成したものです。

---------------------------------------------------------------------

Copyright(C) Seiichi Yoshida (comet@aerith.net). All rights reserved.